ARIANE 42P DEB, 47107

Orbit data source: Space-Track

ARIANE 42P DEB, 47107 is space debris in LEO originally from a launch on Mon, 10 Aug 1992 UTC launched from the French Guiana (FRGUI). Debris objects in space refer to the collection of defunct objects orbiting the Earth. Examples of debris include non-operational satellites, rocket bodies, and fragments generated from explosions, collisions, or faulty payload assembly.

Loading next visibility...
Identifier
47107, 1992-052N
Orbit
LEO
Last TLE update
12 hours ago
Origin
Manufacturer
ArianeGroup
Mission
Spacecraft
Bus & Motor
Unknown
Mass
Unknown
Launch date (UTC)
1992-08-10 (33 years ago)
Launch vehicle
Unknown
Launch site
French Guiana (FRGUI)
Object type
Payload
Rocket body
Debris
Shape & HBR
Unknown
Radar Cross Section
Small (<0.1 m²)

Expand to show TLE details & history

TLE from 12 hours ago
0 ARIANE 42P DEB
1 47107U 92052N   25183.37675267  .00000615  00000-0  28141-2 0  9999
2 47107  66.0627 291.5464 0055813 103.6247 257.0993 12.83489557261910
Epoch: 2025-07-02T09:02Z
TLE epoch observation values (Epoch: 2025-07-02T09:02:31.43Z)
Latitude
-0.0001°
Longitude
-124.74334°
Altitude
1,339.216 km
Speed
7.184 km/s
True Right ascension
19h 26m 11s
True Declination
0° 00' 00"
Sunlit
Object was in full shadow at epoch
Visualization orbit readout
Latitude
37.86925°
Longitude
34.13211°
Altitude
1,296.244 km
Speed
7.229 km/s
Apparent Right ascension
02h 26m 54s
Apparent Declination
8° 57' 43"
Sunlit
Object is in daylight
Visualization observer readout
Local Sidereal Time
08:42:31
Azimuth
279.371° WNW
Elevation
2.773°
Doppler factor
1
Orbital elements
Apogee altitude
1,369.029 km
Perigee altitude
1,283.031 km
Semi-major axis
7,704.167 km
Eccentricity
0.00558
Inclination
66.0627°
RAAN
291.5464°
Arg. of periapsis
103.6247°
True anomaly
Unknown
Mean anomaly
257.0993°
Eccentric anomaly
Unknown
Mean motion
3.20963 °/min
Orbital period
112.16 mins
BSTAR
0.0028141
Loading maneuver chart data...
Loading SW <> Apogee altitude chart data...
Loading historical data...
Loading historical data...
Loading historical data...
Loading historical data...
Loading historical data...
Loading historical data...
Loading historical data...

ARIANE 42P DEB Visibility forecast

Observer location: undefined°, undefined°

Span
Click to sort rows by Start time (UTC) header in descending order
Start Az.
Max El. time (UTC)
Max El. Az.
Max El.
End time (UTC)
End Az.
13 mins2025-07-03 07:34:24.087Z164.289° S2025-07-03 07:41:24.087Z101.586° ESE27.378°2025-07-03 07:47:24.087Z50.156° ENE
14 mins2025-07-03 09:29:24.087Z229.224° WSW2025-07-03 09:36:24.087Z310.657° NW40.198°2025-07-03 09:43:24.087Z22.672° NE
8 mins2025-07-03 11:30:24.087Z301.473° NW2025-07-03 11:33:24.087Z326.153° NNW15.808°2025-07-03 11:38:24.087Z6.19° NNE
8 mins2025-07-03 15:30:24.087Z4.501° NNE2025-07-03 15:33:24.087Z30.382° NE16.908°2025-07-03 15:38:24.087Z71.044° E
14 mins2025-07-03 17:24:24.087Z337.047° NNW2025-07-03 17:31:24.087Z71.999° E41.657°2025-07-03 17:38:24.087Z136.457° SSE
11 mins2025-07-03 19:21:24.087Z299.219° NW2025-07-03 19:26:24.087Z250.032° W24.667°2025-07-03 19:32:24.087Z200.494° SSW
|